Regional Weather Roundup
Issued by NWS

Home | Current Version | Previous Version | Graphics & Text | Print | Product List | Glossary On
Versions: 1 2 3 4 5 6 7 8 9 10 11 12 13 14 15 16 17 18 19 20 21 22 23 24 25 26 27 28 29 30 31 32 33 34 35 36 37 38 39 40 41 42 43 44 45 46 47 48 49 50
000
ASUS45 KABQ 180410
RWRNM
NEW MEXICO REGIONAL WEATHER ROUNDUP
NATIONAL WEATHER SERVICE ALBUQUERQUE NM
1000 PM MDT THU AUG 17 2017

NOTE: "FAIR" MEANS FEW OR NO CLOUDS BELOW 12,000 FEET AGL WITH NO
       SIGNIFICANT WEATHER OR OBSTRUCTIONS TO VISION.

      THIS PRODUCT IS RELEASED AS TWO VERSIONS.  ONE VERSION NEAR
      THE TOP OF THE HOUR CONTAINING PRELIMINARY DATA FROM ALBUQUERQUE
      AND OTHER STATIONS.  A FINAL VERSION WITH ADDITIONAL DATA IS
      ISSUED ABOUT 10 MINUTES AFTER THE HOUR.

NMZ501-503-504-510>518-180500-
NORTHWEST PLATEAU/NORTHCENTRAL MOUNTAINS

CITY           SKY/WX    TMP DP  RH WIND       PRES   REMARKS
FARMINGTON     FAIR      69  29  22 N7        30.17R
LOS ALAMOS     FAIR      71  32  23 W12       30.33R
SANTA FE       FAIR      64  42  44 N8        30.25R
TAOS           MOCLDY    63  38  39 SE7       30.36R
ANGEL FIRE     MOCLDY    52  42  67 SW3       30.45R

$$
NMZ402-403-502-505>509-180500-
WESTCENTRAL MOUNTAINS/SOUTHWEST MOUNTAINS

CITY           SKY/WX    TMP DP  RH WIND       PRES   REMARKS
GALLUP         FAIR      63  29  27 S3        30.28R
GRANTS         FAIR      72  26  18 N8        30.30R
SILVER CITY    FAIR      60  42  50 NW9       30.21R

$$
NMZ407-409-411-412-180500-
SOUTHERN DESERTS

CITY           SKY/WX    TMP DP  RH WIND       PRES   REMARKS
DEMING         FAIR      78  43  28 NW6       30.11R
LAS CRUCES     FAIR      75  40  28 NW6       30.12R
HOLLOMAN AFB   FAIR      82  46  28 E3        30.10R
ALAMOGORDO     FAIR      77  45  31 E5        30.10R
T OR C         FAIR      83  41  22 S8        30.12R

$$
NMZ519>523-180500-
CENTRAL VALLEYS/CENTRAL HIGHLANDS

CITY           SKY/WX    TMP DP  RH WIND       PRES   REMARKS
ALBUQUERQUE    FAIR      79  33  19 E6        30.17R
DOUBLE EAGLE   PTCLDY    68  45  42 CALM      30.21R
MORIARTY ARPT  FAIR      62  44  51 NE6       30.26R
CLINES CORNERS FAIR      65  43  44 S6        30.32R
BELEN          FAIR      75  37  25 S7        30.15S
SOCORRO        FAIR      77  34  20 SW7       30.13R

$$
NMZ524>526-539-540-180500-
SOUTHCENTRAL MOUNTAINS

CITY           SKY/WX    TMP DP  RH WIND       PRES   REMARKS
RUIDOSO        FAIR      66  46  48 SE6       30.35R

$$
NMZ527>531-180500-
NORTHEAST HIGHLANDS/NORTHEAST PLAINS

CITY           SKY/WX    TMP DP  RH WIND       PRES   REMARKS
LAS VEGAS      FAIR      66  48  52 CALM      30.31R
RATON          FAIR      60  52  74 N6        30.26R
CLAYTON        FAIR      70  53  54 SW8       30.15R

$$
NMZ532>537-180500-
EASTCENTRAL PLAINS

CITY           SKY/WX    TMP DP  RH WIND       PRES   REMARKS
SANTA ROSA     FAIR      73  55  53 SE10      30.15R
TUCUMCARI      FAIR      76  59  55 S10       30.08R
CANNON AFB     FAIR      72  71  95 SE10      30.17R
CLOVIS AIRPORT FAIR      72  64  76 SE13      30.17R

$$
NMZ028-029-538-180500-
SOUTHEAST PLAINS

CITY           SKY/WX    TMP DP  RH WIND       PRES   REMARKS
ROSWELL        FAIR      80  57  45 SE10      30.08R
ARTESIA        FAIR      81  63  54 SE16      30.10R
CARLSBAD       FAIR      75  65  70 S13       30.07R
HOBBS          MOCLDY    73  61  64 S8        30.15R


$$



USA.gov is the U.S. government's official web portal to all federal, state and local government web resources and services.